Location: Belmont
(13.0833°N, 59.6000°W)
Time: 00:03:47
(UTC+00:00)

GPS 2-14 Rocket1 - Pass Details

Date: 17 September 2019
Orbit: 477 x 543 km, 20.7° (Epoch: 20 October)

Event Time Altitude Azimuth Distance (km) Brightness Sun altitude
Rises 22:35:28 0° 278° (W) 2,538 8.6 -9.9°
Reaches altitude 10° 22:37:53 10° 289° (WNW) 1,648 6.7 -10.5°
Maximum altitude 22:41:16 30° 352° (N) 877 4.0 -11.3°
Enters shadow 22:44:22 11° 53° (NE) 1,552 4.7 -12.1°
